﻿TIME_UTC_SECONDS;TIME_UTC_STR;AIR_TEMP;TRACK_TEMP;HUMIDITY;PRESSURE;WIND_SPEED;WIND_DIRECTION;RAIN;
1634974221;23/10/2021 7:30:21;14,95;14,2;55,12;1007,79;3,81;313;0;
1634974281;23/10/2021 7:31:21;15;14,2;54,99;1007,79;3,46;314;0;
1634974341;23/10/2021 7:32:21;15,03;14,2;54,92;1007,79;0;323;0;
1634974401;23/10/2021 7:33:21;15,13;14,3;54,66;1007,81;2,31;296;0;
1634974461;23/10/2021 7:34:21;15,23;14,4;54,37;1007,83;2,01;31;0;
1634974522;23/10/2021 7:35:22;15,33;14,4;53,93;1007,84;6,3;155;0;
1634974582;23/10/2021 7:36:22;15,42;14,5;53,58;1007,86;4,51;187;0;
1634974642;23/10/2021 7:37:22;15,51;14,6;53,27;1007,86;1,53;100;0;
1634974702;23/10/2021 7:38:22;15,63;14,6;52,95;1007,87;2,34;130;0;
1634974762;23/10/2021 7:39:22;15,75;14,7;52,49;1007,88;7,6;88;0;
1634974822;23/10/2021 7:40:22;15,9;14,8;52,39;1007,89;0,89;25;0;
1634974882;23/10/2021 7:41:22;16;14,8;52,03;1007,91;2,63;79;0;
1634974942;23/10/2021 7:42:22;16,11;14,9;51,64;1007,92;6,09;161;0;
1634975002;23/10/2021 7:43:22;16,24;14,9;51,44;1007,94;0;152;0;
1634975062;23/10/2021 7:44:22;16,31;15;51,14;1007,95;4,17;204;0;
1634975122;23/10/2021 7:45:22;16,47;15;50,68;1007,96;0,77;74;0;
1634975182;23/10/2021 7:46:22;16,61;15,1;50,37;1007,96;0;184;0;
1634975242;23/10/2021 7:47:22;16,67;15,2;50,12;1007,97;6,2;165;0;
1634975302;23/10/2021 7:48:22;16,58;15,3;50,44;1007,99;4,97;156;0;
1634975362;23/10/2021 7:49:22;16,59;15,3;50,42;1008;2,41;161;0;
1634975422;23/10/2021 7:50:22;16,62;15,4;50,39;1008,02;7;160;0;
1634975482;23/10/2021 7:51:22;16,64;15,5;50,29;1008,04;5,62;158;0;
1634975542;23/10/2021 7:52:22;16,66;15,6;50,26;1008,05;7,13;156;0;
1634975602;23/10/2021 7:53:22;16,7;15,6;50,23;1008,07;6,1;147;0;
1634975662;23/10/2021 7:54:22;16,77;15,7;50,05;1008,09;10,33;145;0;
1634975722;23/10/2021 7:55:22;16,81;15,8;50,08;1008,1;12,02;146;0;
1634975782;23/10/2021 7:56:22;16,88;15,9;49,94;1008,12;5,45;143;0;
1634975842;23/10/2021 7:57:22;16,98;16;49,67;1008,13;2,8;152;0;
1634975902;23/10/2021 7:58:22;17,03;16,1;49,68;1008,13;1,04;148;0;
1634975962;23/10/2021 7:59:22;17,06;16,1;49,62;1008,13;6,7;108;0;
1634976022;23/10/2021 8:00:22;17,16;16,2;49,34;1008,15;1,22;122;0;
1634976082;23/10/2021 8:01:22;17,3;16,3;49,01;1008,17;4,38;96;0;
1634976142;23/10/2021 8:02:22;17,46;16,4;48,63;1008,19;2,35;142;0;
1634976202;23/10/2021 8:03:22;17,67;16,4;48,09;1008,19;1,65;153;0;
1634976262;23/10/2021 8:04:22;17,84;16,6;48,06;1008,21;3,99;133;0;
1634976322;23/10/2021 8:05:22;17,96;16,7;47,43;1008,23;2,1;107;0;
1634976383;23/10/2021 8:06:23;18,08;16,7;46,92;1008,24;3,14;107;0;
1634976443;23/10/2021 8:07:23;18,19;16,9;46,77;1008,26;0,49;155;0;
1634976503;23/10/2021 8:08:23;18,28;17;46,54;1008,26;1,98;132;0;
1634976563;23/10/2021 8:09:23;18,37;17;46,39;1008,26;4,01;132;0;
1634976623;23/10/2021 8:10:23;18,41;17,1;46,17;1008,25;3,49;108;0;
1634976683;23/10/2021 8:11:23;18,43;17,2;46,29;1008,27;3,29;133;0;
1634976743;23/10/2021 8:12:23;18,56;17,3;45,92;1008,26;7,71;142;0;
1634976803;23/10/2021 8:13:23;18,66;17,4;45,47;1008,27;0;118;0;
1634976863;23/10/2021 8:14:23;18,73;17,5;45,24;1008,28;0,69;137;0;
1634976923;23/10/2021 8:15:23;18,75;17,5;45,19;1008,3;2,4;126;0;
1634976983;23/10/2021 8:16:23;18,89;17,6;44,82;1008,29;0;154;0;
1634977043;23/10/2021 8:17:23;18,96;17,7;44,66;1008,27;1,34;132;0;
1634977103;23/10/2021 8:18:23;19,03;17,8;44,46;1008,28;1,69;139;0;
1634977163;23/10/2021 8:19:23;19,07;17,9;44,36;1008,29;0;162;0;
1634977223;23/10/2021 8:20:23;19,15;18;44,26;1008,3;3,08;154;0;
1634977283;23/10/2021 8:21:23;19,32;18,1;43,85;1008,31;2,38;155;0;
1634977343;23/10/2021 8:22:23;19,45;18,2;43,43;1008,32;5,74;165;0;
1634977403;23/10/2021 8:23:23;19,56;18,3;43,06;1008,33;1,75;187;0;
1634977463;23/10/2021 8:24:23;19,64;18,4;42,88;1008,35;2,26;167;0;
1634977523;23/10/2021 8:25:23;19,74;18,5;42,63;1008,36;4,9;208;0;
1634977583;23/10/2021 8:26:23;19,9;18,6;42,4;1008,37;1,18;169;0;
1634977643;23/10/2021 8:27:23;20,01;18,6;42,22;1008,38;3,19;170;0;
1634977703;23/10/2021 8:28:23;20,08;18,8;42,12;1008,37;1,34;160;0;
1634977763;23/10/2021 8:29:23;20,13;18,8;41,96;1008,37;3,36;174;0;
1634977823;23/10/2021 8:30:23;20,14;18,9;41,93;1008,38;5;172;0;
1634977883;23/10/2021 8:31:23;20,21;19,1;41,79;1008,4;9;178;0;
1634977944;23/10/2021 8:32:24;20,3;19,1;41,66;1008,41;3,94;172;0;
1634978004;23/10/2021 8:33:24;20,36;19,2;41,56;1008,43;5,83;171;0;
1634978064;23/10/2021 8:34:24;20,3;19,3;41,79;1008,44;4,81;163;0;
1634978124;23/10/2021 8:35:24;20,29;19,4;42,03;1008,45;4,49;161;0;
1634978184;23/10/2021 8:36:24;20,34;19,5;42,18;1008,46;1,63;165;0;
1634978244;23/10/2021 8:37:24;20,42;19,5;42,2;1008,48;4,37;165;0;
1634978304;23/10/2021 8:38:24;20,49;19,7;42,14;1008,5;5,61;165;0;
1634978364;23/10/2021 8:39:24;20,56;19,8;41,85;1008,51;0;167;0;
1634978424;23/10/2021 8:40:24;20,62;19,8;41,85;1008,52;13,29;162;0;
1634978484;23/10/2021 8:41:24;20,69;20;41,81;1008,53;2,34;164;0;
1634978544;23/10/2021 8:42:24;20,76;20;41,6;1008,54;7,8;158;0;
1634978604;23/10/2021 8:43:24;20,81;20,1;41,1;1008,55;3,4;166;0;
1634978664;23/10/2021 8:44:24;20,92;20,2;40,86;1008,56;4,7;162;0;
1634978724;23/10/2021 8:45:24;20,99;20,4;40,82;1008,56;2,05;161;0;
1634978784;23/10/2021 8:46:24;21,04;20,4;40,59;1008,56;4,18;160;0;
1634978844;23/10/2021 8:47:24;21,17;20,4;40,5;1008,56;2,68;165;0;
1634978904;23/10/2021 8:48:24;21,25;20,6;40,54;1008,57;2,98;170;0;
1634978964;23/10/2021 8:49:24;21,32;20,7;40,31;1008,58;4,35;167;0;
1634979024;23/10/2021 8:50:24;21,35;20,8;40,07;1008,58;3,83;177;0;
1634979084;23/10/2021 8:51:24;21,39;20,9;40,2;1008,59;0,64;171;0;
1634979144;23/10/2021 8:52:24;21,45;20,9;39,98;1008,6;4,03;149;0;
1634979204;23/10/2021 8:53:24;21,58;21,1;39,94;1008,62;4,56;157;0;
1634979264;23/10/2021 8:54:24;21,55;21,1;39,98;1008,62;4,2;165;0;
1634979324;23/10/2021 8:55:24;21,6;21,3;40,07;1008,65;2,94;172;0;
1634979384;23/10/2021 8:56:24;21,68;21,4;40,12;1008,66;6,25;158;0;
1634979444;23/10/2021 8:57:24;21,74;21,4;40,12;1008,66;9,87;166;0;
